ONEWEB-0020, 45133

Orbit data source: Space-Track

ONEWEB-0020, 45133 is a payload satellite owned by One Web (UK) in LEO that was launched on Thu, 06 Feb 2020 UTC via a SOYUZ-2-1B launch vehicle from the Tyuratam Missile And Space Complex (TTMTR). Payload-class satellites include a variety of spacecraft equipped with specific instruments for various scientific and technological missions. These include communications satellites like Starlink; space stations such as the ISS; scientific satellites like the Hubble; Earth observation satellites from companies like Planet Labs, Umbra, and HawkEye 360; GPS; miniature CubeSats for education and research; and military/defense satellites.

Loading next visibility...
Identifier
45133, 2020-008C
Orbit
LEO
Country
Flag of UKUK
Related business
Manufacturer
One Web
Mission
Operational Commercial Communications
Bus & Motor
ARROW, Unknown motor
Mass
148 kg wet, ~140 kg dry
Launch date (UTC)
2020-02-06 (6 years ago)
Launch vehicle
SOYUZ-2-1B
Launch site
Tyuratam Missile And Space Complex (TTMTR)
Object type
Payload
Rocket body
Debris
Shape & HBR
Trap Box + 2 Pan, 6.7 m
Radar Cross Section
3.464 m², Large (>1 m²)

Expand to show TLE details & history
Last TLE update: 17 hours ago

TLE from 17 hours ago
0 ONEWEB-0020
1 45133U 20008C   26151.24753778 -.00000492  00000-0 -14444-2 0  9990
2 45133  87.8851  39.6393 0001816  80.7319 279.4014 13.10370916306122
Epoch: 2026-05-31T05:56Z
TLE epoch observation values (Epoch: 2026-05-31T05:56:27.264Z)
Latitude
0.00003°
Longitude
61.77375°
Altitude
1,224.387 km
Speed
7.242 km/s
True Right ascension
02h 38m 33s
True Declination
0° 00' 00"
Sunlit
Object was in daylight at epoch
Visualization orbit readout
Latitude
Unknown
Longitude
Unknown
Altitude
Unknown
Speed
Unknown
Apparent Right ascension
Unknown
Apparent Declination
Unknown
Sunlit
N/A
Visualization observer readout
Local Sidereal Time
08:52:35
Azimuth
Unknown
Elevation
Unknown
Doppler factor
Unknown
Orbital elements
Apogee altitude
1,220.224 km
Perigee altitude
1,217.465 km
Semi-major axis
7,596.981 km
Eccentricity
0.00018
Inclination
87.8851°
RAAN
39.6393°
Arg. of periapsis
80.7319°
True anomaly
279.38087°
Mean anomaly
279.4014°
Eccentric anomaly
279.39113°
Mean motion
3.27779 °/min
Orbital period
109.83 mins
BSTAR
-0.0014444
Loading maneuver chart data...
Computing Atmospheric mass density...
Loading historical data...
Loading historical data...
Loading historical data...
Loading historical data...
Loading historical data...
Loading historical data...
Loading historical data...

Documentation

Showing up to 5 results
|